Terminal Aerodrome Forecast
Issued by NWS Jackson, MS

Home | Current Version | Previous Version | Text Only | Print | Product List | Glossary On
Versions: 1 2 3 4 5 6 7 8 9 10 11 12 13
000
FTUS44 KJAN 291100
TAFGWO
TAF
KGWO 291120Z 2912/3012 00000KT P6SM FEW050
     FM291330 01007KT P6SM SCT050
     FM300100 00000KT P6SM SKC=

USA.gov is the U.S. government's official web portal to all federal, state and local government web resources and services.